ITAMSAT (IO-26)

Last updated on Sun Aug 09 2026 00:03:15 GMT+0000 (Coordinated Universal Time)

1 22826U 93061D 26220.47621539 .00000018 00000+0 23766-4 0 9994 2 22826 98.6794 287.7845 0007777 292.9697 67.0665 14.31382449714795
UTC large
Height (km)
Speed (km/s)
/
Latitude / Longitude
Inclination (degrees)
Orbital Period (minutes)
Azimuth
Elevation
Range (km)
Doppler Factor

Next 0 passes for location: London (51.5072 / 0.1276)

No passes found over London.
ITAMSAT (IO-26)